Lid_Strength_Index
1 1 1 2 8 9 11 9 7 7 6 4 4 5 6 5 7 9 2 0 -0 -0 -1 -1 -1 -1 -1 -1 -1 -1 -1 -1 -1 -1 -1 -1 -1 -1 -1 -1 -1 -1 -1 -1 -1 -1 -1 -1 -1
2 3 2 4 11 13 11 7 8 7 6 4 5 5 6 7 3 3 2 0 -0 -0 -1 -1 -0 -1 -1 -1 -1 -1 -1 -1 -1 -1 -1 -1 -1 -1 -1 -1 -1 -1 -1 -1 -1 -1 -1 -1 -1
5 3 5 8 10 13 11 7 7 5 6 5 6 4 4 6 3 3 1 0 -0 -0 -1 -1 -0 -1 -1 -1 -1 -1 -1 -1 -1 -1 -1 -1 -1 -1 -1 -1 -1 -1 -1 -1 -1 -1 -1 -1 -1
4 3 4 10 12 9 8 7 6 6 5 5 5 6 3 2 3 2 1 0 0 -0 -1 -1 -1 -1 -1 -1 -1 -1 -1 -1 -1 -1 -1 -1 -1 -1 -1 -1 -1 -0 -1 -1 -1 -1 -0 -0 -1
4 4 10 12 11 9 7 6 5 6 6 5 5 6 5 3 2 3 1 0 0 0 -1 -1 -0 -1 -1 -1 -1 -1 -1 -1 -1 -1 -1 -1 -1 -1 -1 -1 -1 -1 -1 -1 -1 -1 -1 -1 -0
6 5 12 13 11 8 7 5 6 6 6 5 5 6 5 3 4 3 1 0 -0 0 -0 -1 1 0 -0 -0 -1 -1 -1 -1 -1 -1 -1 -1 -1 -1 -1 -1 -1 -1 -1 -1 -1 -0 1 1 2
8 8 11 11 10 9 7 5 6 6 6 6 4 7 4 3 4 3 2 0 0 -0 -0 -0 -1 -0 1 0 0 -0 -1 -1 -1 -1 -0 -1 -0 -1 -1 -1 -0 -0 -1 0 0 1 2 2 3
7 8 11 10 11 11 6 5 5 6 6 3 3 7 6 3 4 4 2 0 0 0 0 0 -0 -0 -0 -0 2 1 1 0 -0 -0 0 0 0 -1 -0 0 0 0 1 1 1 2 3 3 4
8 11 11 11 10 9 6 7 5 4 5 4 4 4 4 6 5 4 3 1 1 1 1 0 0 -0 -0 0 2 3 2 1 1 1 2 2 1 1 2 1 1 1 1 1 2 3 4 5 5
12 14 12 9 8 8 7 7 5 6 6 6 5 3 6 6 5 5 4 3 2 2 1 0 0 0 1 2 3 2 2 2 1 1 2 2 3 3 3 3 2 2 2 2 3 4 5 6 4
12 14 12 11 10 10 10 9 6 6 8 6 6 4 3 6 6 5 4 3 2 2 1 1 1 1 1 2 2 1 2 1 1 2 2 3 4 4 3 3 4 3 4 4 4 5 4 4 4
14 13 12 11 11 11 11 9 9 8 6 5 4 3 3 5 6 5 5 4 3 2 1 1 1 2 1 1 2 2 3 3 3 3 3 4 4 4 4 4 5 4 5 4 4 4 4 5 5
13 13 13 12 12 12 11 12 11 10 7 6 6 5 5 6 6 6 5 4 4 3 2 1 0 0 0 2 3 3 4 4 4 5 4 4 4 4 4 4 4 4 4 4 5 5 5 5 5
10 11 11 12 12 12 13 13 12 11 9 9 8 8 8 8 7 7 6 5 4 3 3 3 2 1 2 3 4 5 6 6 6 6 5 5 4 4 4 4 4 4 4 5 5 5 5 5 5
9 11 11 11 11 12 10 13 13 11 10 10 10 9 8 8 8 8 6 6 5 4 4 4 3 3 4 4 6 6 7 7 7 6 5 5 4 4 4 4 4 4 4 4 5 5 5 6 6
11 11 14 10 10 10 11 15 11 9 9 10 10 9 8 7 7 7 7 7 6 5 5 5 5 5 5 6 7 7 8 8 7 6 5 5 5 5 4 4 4 4 4 5 5 5 5 5 6
13 15 13 12 9 9 10 13 10 8 8 9 9 9 8 8 8 7 7 7 7 6 5 6 6 7 6 7 8 8 8 8 7 6 5 5 5 4 4 4 4 4 5 5 6 6 5 6 6
15 15 13 13 10 10 11 12 10 9 10 10 9 9 9 9 9 8 8 7 7 7 6 6 6 7 7 8 9 9 9 8 7 6 5 5 5 5 5 4 4 5 5 5 5 5 6 6 7
12 14 14 12 11 12 12 12 11 9 9 9 10 9 9 9 8 7 7 7 7 7 7 7 7 8 8 10 11 11 10 9 8 7 6 5 5 5 5 5 5 5 5 6 6 6 7 7 7
13 14 14 12 12 12 13 14 12 11 10 10 9 10 10 9 9 9 8 7 7 7 7 7 7 8 9 10 11 11 10 9 9 9 6 6 5 5 5 5 5 6 5 6 6 6 7 7 8
14 14 14 13 11 12 14 15 13 11 10 10 10 9 9 9 9 8 7 7 7 7 7 7 8 8 9 9 10 9 9 7 8 8 7 7 6 6 6 5 6 5 6 6 6 6 7 8 8
15 12 13 13 14 16 12 18 13 11 11 10 9 9 9 9 8 9 8 8 7 7 6 7 7 8 8 9 10 11 11 10 9 9 8 8 6 6 5 5 5 6 6 6 6 6 7 7 9
13 12 13 13 15 14 14 17 16 12 13 12 10 9 8 8 8 8 8 8 7 7 6 7 7 7 8 9 9 9 10 9 9 9 9 8 7 5 5 5 6 6 6 7 6 7 7 7 7
10 12 14 15 15 18 17 15 17 13 11 10 9 9 9 8 8 8 8 8 8 7 6 6 7 7 7 8 8 8 8 8 8 9 10 9 7 7 7 7 7 7 8 6 7 7 7 7 7
11 15 17 19 20 20 15 15 15 12 11 10 10 10 9 9 8 8 8 8 9 8 6 6 7 7 7 8 8 8 8 8 9 9 9 9 8 7 7 7 8 7 6 6 7 7 7 8 8
13 14 17 21 19 17 14 18 15 11 10 9 10 10 9 9 9 9 9 9 9 9 8 7 7 7 7 8 8 7 8 8 8 8 8 9 9 8 8 8 6 7 7 7 7 7 7 8 8
13 16 12 16 16 18 16 15 13 12 12 11 11 10 11 11 11 11 10 10 10 9 9 8 7 7 7 8 8 7 7 8 9 8 7 7 8 8 7 7 7 7 7 7 7 8 8 8 8
12 11 16 16 20 21 17 16 14 12 12 13 13 12 12 12 12 12 12 11 10 10 9 8 7 7 7 7 7 7 7 7 8 8 8 8 8 8 8 8 8 9 9 9 8 8 8 9 9
14 15 13 13 15 17 18 15 13 14 13 14 14 13 12 12 12 12 12 12 11 11 10 9 8 8 7 7 8 7 7 7 7 8 7 7 7 8 9 9 9 9 9 8 8 8 9 10 11
13 14 13 16 17 15 15 14 12 13 13 13 14 13 13 13 13 13 13 13 13 13 12 11 10 9 8 8 8 8 8 7 7 8 7 7 8 8 8 8 9 9 9 9 10 11 11 11 11